Weather History for KTMB - December, 2013

Change the Weather History Date:

Sunday, December 22, 2013

  Actual Average Record
Temperature  
Mean Temperature 77 °F -  
Max Temperature 82 °F 79 °F 83 °F (1989)
Min Temperature 72 °F 58 °F 46 °F (2005)
Cooling Degree Days 12    
Growing Degree Days 27 (Base 50)    
Moisture  
Dew Point 71 °F    
Average Humidity 77    
Maximum Humidity 97    
Minimum Humidity 66    
Precipitation  
Precipitation 0.00 in - - ()
Sea Level Pressure  
Sea Level Pressure 30.12 in    
Wind  
Wind Speed 11 mph (SE)    
Max Wind Speed 17 mph    
Max Gust Speed 25 mph    
Visibility 10 miles    
Events      
Averages and records for this station are not official NWS values.
T = Trace of Precipitation, MM = Missing Value Source: NWS Daily Summary

Daily Weather History Graph

Daily Weather History Graph

Search for Another Location

Airport or City:

Trip Planner

Search our weather history database for the weather conditions in past years. The results will help you decide how hot, cold, wet, or windy it might be!

Date:

Astronomy

Dec. 22, 2013 Rise Set
Actual Time 7:04 AM EST 5:36 PM EST
Civil Twilight 6:39 AM EST 6:01 PM EST
Nautical Twilight 6:10 AM EST 6:30 PM EST
Astronomical Twilight 5:42 AM EST 6:58 PM EST
Moon 10:20 PM EST (12/22) 10:24 AM EST (12/22)
Length of Visible Light 11h 22m
Length of Day
10h 32m
Waning Gibbous, 77% of the Moon is Illuminated
Dec 22
Waning Gibbous
Dec 25
Last Quarter
Jan 1
New
Jan 7
First Quarter
Jan 15
Full

Hourly Weather History & Observations

Time (EST) Temp. Heat Index Dew Point Humidity Pressure Visibility Wind Dir Wind Speed Gust Speed Precip Events Conditions
12:53 AM 77.0 °F - 71.1 °F 82% 30.10 in 10.0 mi SE 10.4 mph 19.6 mph N/A   Clear
1:53 AM 77.0 °F - 71.1 °F 82% 30.10 in 10.0 mi SE 11.5 mph - N/A   Partly Cloudy
2:53 AM 75.9 °F - 71.1 °F 85% 30.09 in 10.0 mi SE 12.7 mph - N/A   Partly Cloudy
3:53 AM 77.0 °F - 71.1 °F 82% 30.09 in 10.0 mi SE 8.1 mph 18.4 mph N/A   Mostly Cloudy
4:53 AM 77.0 °F - 70.0 °F 79% 30.09 in 10.0 mi SE 13.8 mph - N/A   Clear
5:53 AM 75.9 °F - 71.1 °F 85% 30.10 in 10.0 mi SE 10.4 mph - N/A   Scattered Clouds
6:53 AM 75.9 °F - 70.0 °F 82% 30.11 in 10.0 mi SE 9.2 mph - N/A   Partly Cloudy
7:53 AM 77.0 °F - 71.1 °F 82% 30.13 in 10.0 mi SE 8.1 mph - N/A   Clear
8:53 AM 80.1 °F 83.2 °F 70.0 °F 71% 30.15 in 10.0 mi SE 15.0 mph 21.9 mph N/A   Clear
9:53 AM 81.0 °F 84.4 °F 70.0 °F 69% 30.16 in 10.0 mi SE 16.1 mph 21.9 mph N/A   Clear
10:53 AM 82.0 °F 86.3 °F 71.1 °F 69% 30.15 in 10.0 mi SE 12.7 mph 24.2 mph N/A   Scattered Clouds
11:22 AM 82.4 °F 87.2 °F 71.6 °F 70% 30.14 in 10.0 mi SSE 15.0 mph 21.9 mph N/A   Mostly Cloudy
11:44 AM 82.4 °F 86.3 °F 69.8 °F 66% 30.13 in 10.0 mi SE 16.1 mph 24.2 mph N/A   Mostly Cloudy
11:53 AM 81.0 °F 84.4 °F 70.0 °F 69% 30.13 in 10.0 mi SSE 15.0 mph 24.2 mph N/A   Mostly Cloudy
12:50 PM 82.4 °F 86.3 °F 69.8 °F 66% 30.11 in 10.0 mi SSE 15.0 mph 24.2 mph N/A   Mostly Cloudy
12:53 PM 82.0 °F 85.9 °F 70.0 °F 67% 30.11 in 10.0 mi SE 17.3 mph 24.2 mph N/A   Mostly Cloudy
1:09 PM 82.4 °F 87.2 °F 71.6 °F 70% 30.11 in 10.0 mi SE 16.1 mph 25.3 mph N/A   Mostly Cloudy
1:43 PM 82.4 °F 87.2 °F 71.6 °F 70% 30.10 in 10.0 mi SE 15.0 mph 21.9 mph N/A   Mostly Cloudy
1:53 PM 82.0 °F 86.3 °F 71.1 °F 69% 30.10 in 10.0 mi SE 13.8 mph 20.7 mph N/A   Mostly Cloudy
2:33 PM 82.4 °F 86.3 °F 69.8 °F 66% 30.10 in 10.0 mi SE 9.2 mph 17.3 mph N/A   Mostly Cloudy
2:41 PM 82.4 °F 87.2 °F 71.6 °F 70% 30.10 in 10.0 mi SE 11.5 mph - N/A   Scattered Clouds
2:53 PM 82.0 °F 85.9 °F 70.0 °F 67% 30.10 in 10.0 mi SE 11.5 mph 20.7 mph N/A   Scattered Clouds
3:53 PM 82.0 °F 85.9 °F 70.0 °F 67% 30.10 in 10.0 mi SE 13.8 mph 20.7 mph N/A   Partly Cloudy
4:46 PM 80.6 °F 84.6 °F 71.6 °F 74% 30.11 in 10.0 mi SE 8.1 mph - N/A   Mostly Cloudy
4:53 PM 80.1 °F 83.6 °F 71.1 °F 74% 30.12 in 10.0 mi ESE 10.4 mph - N/A   Mostly Cloudy
5:53 PM 78.1 °F - 71.1 °F 79% 30.12 in 10.0 mi SE 8.1 mph - N/A   Clear
6:53 PM 75.9 °F - 72.0 °F 87% 30.14 in 10.0 mi ESE 3.5 mph - N/A   Clear
7:53 PM 73.0 °F - 71.1 °F 93% 30.15 in 10.0 mi ESE 4.6 mph - N/A   Clear
8:53 PM 73.0 °F - 72.0 °F 96% 30.16 in 10.0 mi East 5.8 mph - N/A   Clear
9:53 PM 72.0 °F - 71.1 °F 97% 30.16 in 10.0 mi East 4.6 mph - N/A   Partly Cloudy
10:53 PM 73.0 °F - 72.0 °F 96% 30.16 in 10.0 mi East 5.8 mph - N/A   Partly Cloudy
11:53 PM 75.9 °F - 73.0 °F 91% 30.16 in 10.0 mi ESE 8.1 mph - N/A   Scattered Clouds